Weather History for Athens Eleftherios, Greece

Change the Weather History Date:

Wednesday, July 17, 2013

  Actual Average (LGEL) Record (LGEL)
Temperature  
Mean Temperature 78 °F -  
Max Temperature 82 °F 90 °F 102 °F (2002)
Min Temperature 73 °F 72 °F 66 °F (2004)
Cooling Degree Days 12    
Growing Degree Days 28 (Base 50)    
Moisture  
Dew Point 55 °F    
Average Humidity 46    
Maximum Humidity 61    
Minimum Humidity 32    
Precipitation  
Precipitation 0.00 in - - ()
Sea Level Pressure  
Sea Level Pressure 29.96 in    
Wind  
Wind Speed 14 mph ()    
Max Wind Speed 28 mph    
Max Gust Speed 36 mph    
Visibility 6.2 miles    
Events      
Averages and records for this station are not official NWS values.
T = Trace of Precipitation, MM = Missing Value Source: Averaged Metar Reports

Daily Weather History Graph

Daily Weather History Graph

Search for Another Location

Airport:

Trip Planner

Search our weather history database for the weather conditions in past years. The results will help you decide how hot, cold, wet, or windy it might be!

Date:

Astronomy

Jul. 17, 2013 Rise Set
Actual Time 6:15 AM EEST 8:45 PM EEST
Civil Twilight 5:44 AM EEST 9:15 PM EEST
Nautical Twilight 5:07 AM EEST 9:52 PM EEST
Astronomical Twilight 4:25 AM EEST 10:34 PM EEST
Moon 3:14 PM EEST (7/17) 1:07 AM EEST (7/17)
Length of Visible Light 15h 30m
Length of Day
14h 29m
Waxing Gibbous, 64% of the Moon is Illuminated
Jul 17
Waxing Gibbous
Jul 22
Full
Jul 29
Last Quarter
Aug 7
New
Aug 14
First Quarter

Hourly Weather History & Observations

Time (EEST) Temp. Heat Index Dew Point Humidity Pressure Visibility Wind Dir Wind Speed Gust Speed Precip Events Conditions
12:20 AM 78.8 °F - 46.4 °F 32% - 6.2 mi North 10.4 mph - N/A   Partly Cloudy
12:50 AM 78.8 °F - 48.2 °F 34% 29.95 in 6.2 mi NNE 10.4 mph - N/A   Partly Cloudy
1:20 AM 77.0 °F - 50.0 °F 39% 29.95 in 6.2 mi NNE 13.8 mph - N/A   Partly Cloudy
1:50 AM 77.0 °F - 51.8 °F 41% 29.95 in 6.2 mi NNE 15.0 mph - N/A   Partly Cloudy
2:20 AM 77.0 °F - 55.4 °F 47% 29.95 in 6.2 mi NNE 17.3 mph - N/A   Partly Cloudy
2:50 AM 75.2 °F - 59.0 °F 57% 29.95 in 6.2 mi NNE 20.7 mph - N/A   Partly Cloudy
3:20 AM 75.2 °F - 59.0 °F 57% 29.95 in 6.2 mi NNE 19.6 mph - N/A   Partly Cloudy
3:50 AM 75.2 °F - 59.0 °F 57% 29.92 in 6.2 mi NNE 19.6 mph - N/A   Partly Cloudy
4:20 AM 75.2 °F - 59.0 °F 57% 29.95 in 6.2 mi NNE 15.0 mph - N/A   Partly Cloudy
4:50 AM 73.4 °F - 59.0 °F 61% 29.95 in 6.2 mi North 12.7 mph - N/A   Partly Cloudy
5:20 AM 73.4 °F - 59.0 °F 61% 29.95 in 6.2 mi NNE 15.0 mph - N/A   Scattered Clouds
5:50 AM 73.4 °F - 59.0 °F 61% 29.95 in 6.2 mi North 18.4 mph - N/A   Scattered Clouds
6:20 AM 73.4 °F - 59.0 °F 61% 29.95 in 6.2 mi NNE 17.3 mph - N/A   Mostly Cloudy
6:50 AM 75.2 °F - 57.2 °F 53% 29.95 in 6.2 mi North 11.5 mph - N/A   Mostly Cloudy
7:20 AM 75.2 °F - 55.4 °F 50% 29.95 in 6.2 mi North 13.8 mph - N/A   Mostly Cloudy
7:50 AM 77.0 °F - 55.4 °F 47% 29.95 in 6.2 mi North 12.7 mph - N/A   Mostly Cloudy
8:20 AM 77.0 °F - 57.2 °F 50% 29.98 in 6.2 mi North 16.1 mph - N/A   Mostly Cloudy
8:50 AM 75.2 °F - 57.2 °F 53% 29.98 in 6.2 mi North 15.0 mph 27.6 mph N/A   Mostly Cloudy
9:20 AM 75.2 °F - 57.2 °F 53% 29.98 in 6.2 mi North 16.1 mph 28.8 mph N/A   Mostly Cloudy
9:50 AM 77.0 °F - 57.2 °F 50% 29.98 in 6.2 mi NNW 13.8 mph - N/A   Mostly Cloudy
10:20 AM 77.0 °F - 57.2 °F 50% 29.98 in 6.2 mi NNW 15.0 mph - N/A   Mostly Cloudy
10:50 AM 77.0 °F - 57.2 °F 50% 29.98 in 6.2 mi NNW 12.7 mph 26.5 mph N/A   Mostly Cloudy
11:20 AM 77.0 °F - 57.2 °F 50% 29.98 in 6.2 mi NNW 13.8 mph 25.3 mph N/A   Mostly Cloudy
11:50 AM 77.0 °F - 57.2 °F 50% 29.98 in 6.2 mi NNW 15.0 mph - N/A   Mostly Cloudy
12:20 PM 78.8 °F - 57.2 °F 47% 29.98 in 6.2 mi NNW 15.0 mph 26.5 mph N/A   Mostly Cloudy
12:50 PM 78.8 °F - 57.2 °F 47% 29.98 in 6.2 mi NNW 16.1 mph - N/A   Mostly Cloudy
1:20 PM 80.6 °F 80.8 °F 57.2 °F 45% 29.98 in 6.2 mi North 18.4 mph 32.2 mph N/A   Scattered Clouds
1:50 PM 80.6 °F 80.8 °F 57.2 °F 45% 29.98 in 6.2 mi North 18.4 mph - N/A   Scattered Clouds
2:20 PM 82.4 °F 81.7 °F 55.4 °F 39% 29.98 in 6.2 mi North 19.6 mph 32.2 mph N/A   Scattered Clouds
2:50 PM 80.6 °F 80.5 °F 55.4 °F 42% 29.98 in 6.2 mi North 18.4 mph - N/A   Scattered Clouds
3:20 PM 80.6 °F 80.8 °F 57.2 °F 45% 29.98 in 6.2 mi North 21.9 mph - N/A   Scattered Clouds
3:50 PM 80.6 °F 80.5 °F 55.4 °F 42% 29.95 in 6.2 mi NNE 24.2 mph 35.7 mph N/A   Scattered Clouds
4:20 PM 80.6 °F 81.1 °F 59.0 °F 48% 29.95 in 6.2 mi NNE 27.6 mph - N/A   Scattered Clouds
4:50 PM 80.6 °F 80.3 °F 53.6 °F 39% 29.95 in 6.2 mi NNE 27.6 mph - N/A   Scattered Clouds
5:20 PM 82.4 °F 81.4 °F 53.6 °F 37% 29.95 in 6.2 mi NNE 26.5 mph - N/A   Scattered Clouds
5:50 PM 82.4 °F - 51.8 °F 35% 29.95 in 6.2 mi North 26.5 mph - N/A   Scattered Clouds
6:20 PM 80.6 °F - 50.0 °F 34% 29.95 in 6.2 mi NNW 15.0 mph - N/A   Scattered Clouds
6:50 PM 80.6 °F - 50.0 °F 34% 29.95 in 6.2 mi North 17.3 mph - N/A   Partly Cloudy
7:20 PM 80.6 °F - 50.0 °F 34% 29.95 in - North 17.3 mph 28.8 mph N/A   Clear
7:50 PM 78.8 °F - 50.0 °F 36% 29.95 in - North 18.4 mph - N/A   Clear
8:20 PM 78.8 °F - 50.0 °F 36% 29.95 in - North 12.7 mph - N/A   Clear
8:50 PM 78.8 °F - 50.0 °F 36% 29.95 in - NNW 10.4 mph - N/A   Clear
9:20 PM 78.8 °F - 50.0 °F 36% 29.98 in - NNW 10.4 mph - N/A   Clear
9:50 PM 77.0 °F - 51.8 °F 41% 29.98 in - NW 9.2 mph - N/A   Clear
10:20 PM 77.0 °F - 51.8 °F 41% 29.98 in - NNW 13.8 mph - N/A   Clear
10:50 PM 77.0 °F - 53.6 °F 44% 29.98 in - North 17.3 mph - N/A   Clear
11:20 PM 77.0 °F - 53.6 °F 44% 29.98 in - North 16.1 mph - N/A   Clear
11:50 PM 77.0 °F - 53.6 °F 44% 29.95 in - North 16.1 mph - N/A   Clear